Onslow Bay Outer, NC (41036)

Conditions for Thursday

Daily
Weekly
Monthly
Marine Data Graph

Marine & Boating Location Search

Enter a coastal zip code for marine weather.

General Information

Location: 34.206 North -76.952 West
Buoy Type: 3-meter discus buoy
Buoy Hull: 3D49
Payload: AMPS payload
Owned by: NDBC
Windspeed: Measured by obtained from anemometer
Sea Surface: Measured by Intake
Note:
 

Weather and Wave Data

Time Temp Humidity Wind Dominant Wave Wind Wave Wave Swell Pressure
  Air
(°F)
Water
(°F)
  Dir Speed
(kts)
Speed
(mph)
Period
(sec)
Height
(ft)
Range
(ft)
Period
(sec)
Height
(ft)
Range
(ft)
Period
(sec)
Height
(ft)
Range
(ft)
Atmo.
(in)
Tend.
(in)
20:20 69 67 80 SSW 13.6 15.7 - - - - - - 30.10 -
20:50 69 67 81 SSW 13.6 15.7 11 3.61 exactly 3.6 3 1.64 0.82 - 2.46 11 3.28 2.46 - 4.10 30.09 -0.02
21:20 70 67 78 SSW 15.6 17.9 - - - - - - 30.09 -
22:20 69 67 77 SSW 13.6 15.7 - - - - - - 30.12 -
22:50 69 66 77 SW 11.7 13.4 8 4.59 exactly 4.6 4 3.28 2.46 - 4.10 8 3.28 2.46 - 4.10 30.13 +0.03
23:20 69 66 80 SSW 11.7 13.4 - - - - - - 30.13 -
23:50 69 66 81 SW 11.7 13.4 8 4.59 exactly 4.6 5 3.28 2.46 - 4.10 8 3.28 2.46 - 4.10 30.12 +0.03
00:20 69 66 82 SSW 13.6 15.7 - - - - - - 30.12 -
00:50 69 66 83 SSW 13.6 15.7 9 4.59 exactly 4.6 5 3.28 2.46 - 4.10 9 3.28 2.46 - 4.10 30.12 +0.01
01:20 69 66 81 SSW 11.7 13.4 - - - - - - 30.12 -
01:50 69 66 82 SSW 11.7 13.4 9 4.59 exactly 4.6 5 3.28 2.46 - 4.10 9 3.28 2.46 - 4.10 30.11 -0.02
02:20 69 66 82 SSW 11.7 13.4 - - - - - - 30.09 -
02:50 69 66 82 SSW 11.7 13.4 8 4.92 exactly 4.9 5 3.28 2.46 - 4.10 8 3.28 2.46 - 4.10 30.09 -0.03
03:20 69 66 83 SSW 11.7 13.4 - - - - - - 30.09 -
03:50 69 66 84 SSW 11.7 13.4 6 4.59 exactly 4.6 6 3.28 2.46 - 4.10 9 3.28 2.46 - 4.10 30.09 -0.03
04:20 68 66 88 SW 11.7 13.4 - - - - - - 30.10 -
04:50 68 66 88 SW 11.7 13.4 8 4.27 exactly 4.3 6 3.28 2.46 - 4.10 8 3.28 2.46 - 4.10 30.11 -
05:20 68 66 88 SW 11.7 13.4 - - - - - - 30.12 -
05:50 68 66 90 SW 9.7 11.2 8 4.27 exactly 4.3 5 3.28 2.46 - 4.10 8 3.28 2.46 - 4.10 30.12 +0.03
06:20 67 66 93 WSW 7.8 8.9 - - - - - - 30.14 -
06:50 67 66 96 WSW 9.7 11.2 8 4.27 exactly 4.3 4 1.64 0.82 - 2.46 8 3.28 2.46 - 4.10 30.14 +0.05
07:20 67 66 96 WSW 9.7 11.2 - - - - - - 30.16 -
07:50 67 66 94 WSW 9.7 11.2 10 4.27 exactly 4.3 5 1.64 0.82 - 2.46 10 3.28 2.46 - 4.10 30.17 +0.06
08:20 67 66 94 WSW 9.7 11.2 - - - - - - 30.17 -
08:50 67 66 84 WSW 7.8 8.9 9 3.94 exactly 3.9 3 1.64 0.82 - 2.46 9 3.28 2.46 - 4.10 30.18 +0.05
09:20 67 66 89 West 7.8 8.9 - - - - - - 30.18 -
09:50 66 66 91 WNW 7.8 8.9 8 3.94 exactly 3.9 3 1.64 0.82 - 2.46 8 3.28 2.46 - 4.10 30.18 +0.03
10:20 65 66 94 WNW 7.8 8.9 - - - - - - 30.18 -
10:50 65 66 91 NW 9.7 11.2 9 3.94 exactly 3.9 4 1.64 0.82 - 2.46 9 3.28 2.46 - 4.10 30.19 +0.02
11:20 65 66 89 NW 7.8 8.9 - - - - - - 30.20 -
11:50 65 66 89 North 5.8 6.7 9 3.61 exactly 3.6 4 1.64 0.82 - 2.46 9 3.28 2.46 - 4.10 30.20 +0.02
12:50 65 66 84 NNE 7.8 8.9 8 3.61 exactly 3.6 4 1.64 0.82 - 2.46 8 3.28 2.46 - 4.10 30.21 +0.03
13:20 63 66 81 NE 17.5 20.1 - - - - - - 30.20 -
13:50 60 66 81 ENE 21.4 24.6 8 3.61 exactly 3.6 5 1.64 0.82 - 2.46 8 3.28 2.46 - 4.10 30.20 +0.02
14:20 59 66 82 ENE 23.3 26.8 - - - - - - 30.19 -
14:50 59 66 79 ENE 19.4 22.4 8 4.27 exactly 4.3 4 3.28 2.46 - 4.10 8 3.28 2.46 - 4.10 30.20 -
15:20 59 66 79 ENE 19.4 22.4 - - - - - - 30.20 -
15:50 58 66 83 ENE 19.4 22.4 8 4.92 exactly 4.9 5 4.92 4.10 - 5.74 8 3.28 2.46 - 4.10 30.20 -
16:20 58 66 82 ENE 21.4 24.6 - - - - - - 30.19 -
16:50 58 66 78 NE 21.4 24.6 5 5.25 exactly 5.2 5 4.92 4.10 - 5.74 8 1.64 0.82 - 2.46 30.20 -
17:20 58 66 79 ENE 23.3 26.8 - - - - - - 30.19 -
17:50 58 67 78 ENE 23.3 26.8 5 5.25 exactly 5.2 5 4.92 4.10 - 5.74 8 1.64 0.82 - 2.46 30.20 -
18:20 58 67 79 ENE 21.4 24.6 - - - - - - 30.21 -
18:50 58 67 78 ENE 21.4 24.6 6 5.91 exactly 5.9 6 4.92 4.10 - 5.74 9 1.64 0.82 - 2.46 30.22 +0.01
19:20 59 67 70 ENE 21.4 24.6 - - - - - - 30.21 -
19:50 59 67 73 ENE 17.5 20.1 6 5.58 exactly 5.6 6 4.92 4.10 - 5.74 - - - 30.22 +0.02
20:20 60 66 74 East 15.6 17.9 - - - - - - 30.21 -
20:50 60 66 76 NE 17.5 20.1 6 4.92 exactly 4.9 6 4.92 4.10 - 5.74 8 1.64 0.82 - 2.46 30.22 +0.01
21:20 59 66 79 NNE 19.4 22.4 - - - - - - 30.23 -
21:50 59 66 77 NNE 19.4 22.4 8 4.59 exactly 4.6 5 4.92 4.10 - 5.74 8 1.64 0.82 - 2.46 30.25 +0.04
22:20 59 66 77 NNE 17.5 20.1 - - - - - - 30.27 -
22:50 59 66 82 NNE 15.6 17.9 9 4.27 exactly 4.3 5 3.28 2.46 - 4.10 9 1.64 0.82 - 2.46 30.27 +0.05
23:20 59 66 80 NE 17.5 20.1 - - - - - - 30.26 -
23:50 59 66 82 NNE 17.5 20.1 9 4.27 exactly 4.3 6 3.28 2.46 - 4.10 9 1.64 0.82 - 2.46 30.25 +0.04
00:20 59 66 83 NNE 17.5 20.1 - - - - - - 30.26 -
00:50 58 66 86 NNE 17.5 20.1 9 4.27 exactly 4.3 6 3.28 2.46 - 4.10 9 1.64 0.82 - 2.46 30.26 +0.01
01:20 59 66 78 NNE 17.5 20.1 - - - - - - 30.26 -
01:50 59 66 75 NE 15.6 17.9 9 3.94 exactly 3.9 6 3.28 2.46 - 4.10 9 1.64 0.82 - 2.46 30.27 -
02:20 59 66 75 NE 15.6 17.9 - - - - - - 30.27 -
02:50 59 66 77 NE 13.6 15.7 8 3.94 exactly 3.9 4 3.28 2.46 - 4.10 8 1.64 0.82 - 2.46 30.27 +0.01
03:20 59 66 78 NE 15.6 17.9 - - - - - - 30.27 -
03:50 60 66 72 NE 15.6 17.9 8 4.27 exactly 4.3 5 3.28 2.46 - 4.10 8 3.28 2.46 - 4.10 30.27 -

Detailed Wave Spectra

Time Water Depth Wave Height Spectral Peak Period Average Wave Period Sampling Interval Wave Record
20:00 82 ft 4.23 ft 10.0 sec 5.9 sec 0.6 sec 2400 sec
21:00 82 ft 3.74 ft 10.8 sec 5.2 sec 0.6 sec 2400 sec
23:00 82 ft 4.49 ft 8.3 sec 5.3 sec 0.6 sec 2400 sec
00:00 82 ft 4.66 ft 8.3 sec 5.5 sec 0.6 sec 2400 sec
01:00 82 ft 4.46 ft 9.1 sec 5.3 sec 0.6 sec 2400 sec
02:00 82 ft 4.46 ft 9.1 sec 5.3 sec 0.6 sec 2400 sec
03:00 82 ft 4.79 ft 8.3 sec 5.2 sec 0.6 sec 2400 sec
04:00 82 ft 4.66 ft 5.6 sec 5.3 sec 0.6 sec 2400 sec
05:00 82 ft 4.30 ft 8.3 sec 5.1 sec 0.6 sec 2400 sec
06:00 82 ft 4.40 ft 8.3 sec 5.2 sec 0.6 sec 2400 sec
07:00 82 ft 4.23 ft 8.3 sec 5.3 sec 0.6 sec 2400 sec
08:00 82 ft 4.20 ft 10.0 sec 5.5 sec 0.6 sec 2400 sec
09:00 82 ft 4.00 ft 9.1 sec 5.4 sec 0.6 sec 2400 sec
10:00 82 ft 3.94 ft 8.3 sec 5.7 sec 0.6 sec 2400 sec
11:00 82 ft 4.04 ft 9.1 sec 5.9 sec 0.6 sec 2400 sec
12:00 82 ft 3.61 ft 9.1 sec 5.9 sec 0.6 sec 2400 sec
13:00 82 ft 3.74 ft 8.3 sec 6.2 sec 0.6 sec 2400 sec
14:00 82 ft 3.54 ft 8.3 sec 5.0 sec 0.6 sec 2400 sec
15:00 82 ft 4.17 ft 8.3 sec 4.4 sec 0.6 sec 2400 sec
16:00 82 ft 4.92 ft 8.3 sec 4.6 sec 0.6 sec 2400 sec
17:00 82 ft 5.18 ft 4.8 sec 4.5 sec 0.6 sec 2400 sec
18:00 82 ft 5.38 ft 5.3 sec 4.7 sec 0.6 sec 2400 sec
20:00 82 ft 5.48 ft 5.9 sec 5.0 sec 0.6 sec 2400 sec
21:00 82 ft 4.89 ft 5.9 sec 4.8 sec 0.6 sec 2400 sec
23:00 82 ft 4.40 ft 9.1 sec 4.8 sec 0.6 sec 2400 sec
00:00 82 ft 4.23 ft 9.1 sec 4.7 sec 0.6 sec 2400 sec
01:00 82 ft 4.17 ft 9.1 sec 4.7 sec 0.6 sec 2400 sec
02:00 82 ft 4.10 ft 9.1 sec 4.7 sec 0.6 sec 2400 sec
03:00 82 ft 4.04 ft 8.3 sec 4.7 sec 0.6 sec 2400 sec